カタログに戻る

STARLINK-31569

運用中通信VLEO
NORAD 59857·PAYLOAD·🇺🇸 United States

打ち上げ May 23, 2024 から Cape Canaveral Space Force Station

Loading…

次のパス (今後24時間)

TLE

最新Source: CelesTrak SupGP

元期: Sep 14, 2026, 22:01 UTC

1 59857C 24097Y   26257.91784722  .00018763  00000+0  67960-3 0  2570
2 59857  43.0002 285.7670 0001518 266.9349 177.7034 15.27568680    12

AllMySatでSTARLINK-31569をリアルタイム追跡

Download on the App Store